Total_Precipitation_Accumulation
0.45 0.46 0.47 0.45 0.40 0.36 0.39 0.44 0.51 0.61 0.74 0.94 1.24 1.64 1.86 1.99 2.00 2.02 1.91 1.71 1.49 1.50 1.67 1.64 1.62 1.63 1.63 1.60 1.55 1.71 1.64 1.38 1.30 1.48 1.45 1.31 1.15 1.10 1.07 1.09 1.21 1.29 1.27
0.39 0.35 0.35 0.34 0.31 0.26 0.25 0.35 0.42 0.52 0.67 0.95 1.25 1.57 1.92 1.99 2.01 2.02 1.98 1.85 1.72 1.73 1.77 1.98 2.09 2.06 2.17 2.15 1.98 2.13 2.13 1.76 1.53 1.78 2.07 1.79 1.58 1.20 1.08 1.14 1.15 1.25 1.38
0.33 0.31 0.31 0.30 0.27 0.23 0.19 0.27 0.32 0.47 0.76 1.10 1.41 1.60 1.88 1.98 2.03 2.00 2.01 2.03 1.98 1.89 1.90 2.02 2.20 2.22 2.29 2.39 2.47 2.42 2.52 2.31 1.92 1.80 2.09 1.98 1.84 1.64 1.24 1.15 1.24 1.38 1.46
0.30 0.30 0.33 0.30 0.24 0.20 0.18 0.22 0.29 0.50 0.82 1.15 1.41 1.65 2.00 2.10 2.06 2.09 2.08 2.09 2.11 2.07 2.15 2.17 2.28 2.31 2.33 2.43 2.54 2.51 2.65 2.72 2.33 2.04 1.83 1.66 1.67 1.78 1.55 1.30 1.27 1.44 1.48
0.28 0.26 0.27 0.27 0.25 0.24 0.25 0.29 0.42 0.61 0.86 1.06 1.31 1.68 1.94 2.05 2.19 2.12 2.09 2.10 2.17 2.18 2.22 2.29 2.45 2.45 2.43 2.40 2.61 2.66 2.76 2.69 2.61 2.47 2.30 2.14 1.89 1.53 1.62 1.65 1.50 1.42 1.33
0.28 0.28 0.28 0.28 0.29 0.30 0.35 0.45 0.60 0.72 0.92 1.10 1.30 1.49 1.75 1.88 2.02 2.11 2.06 2.05 2.12 2.22 2.12 2.04 2.18 2.24 2.29 2.27 2.45 2.63 2.77 2.75 2.78 2.70 2.42 2.36 2.22 1.86 1.79 1.67 1.57 1.58 1.40
0.33 0.38 0.39 0.44 0.51 0.54 0.57 0.65 0.74 0.84 0.97 1.07 1.16 1.23 1.40 1.55 1.59 1.75 1.84 1.97 1.98 2.05 2.09 1.97 1.96 1.99 1.95 1.99 2.11 2.18 2.26 2.40 2.56 2.48 2.27 2.23 2.07 2.04 2.05 1.95 1.72 1.56 1.34
0.49 0.59 0.66 0.76 0.83 0.83 0.82 0.88 0.93 0.92 0.93 0.99 1.04 1.06 1.14 1.22 1.29 1.31 1.35 1.52 1.69 1.73 1.82 1.82 1.76 1.80 1.84 1.85 1.93 1.95 1.96 1.99 2.07 2.07 2.16 2.21 2.09 2.01 1.94 1.97 2.13 1.89 1.64
0.78 0.87 0.96 0.98 0.98 0.97 0.92 0.93 0.96 0.94 0.92 0.94 0.94 0.88 0.87 0.93 1.04 1.06 1.12 1.18 1.27 1.29 1.35 1.45 1.52 1.61 1.66 1.72 1.87 1.94 1.93 1.89 1.86 1.97 2.04 2.00 1.99 1.96 1.85 1.83 1.98 2.07 1.91
1.13 1.26 1.34 1.25 1.16 1.17 1.20 1.09 0.99 0.93 0.89 0.89 0.89 0.82 0.79 0.84 0.87 0.87 0.93 0.92 0.93 0.95 1.01 1.12 1.28 1.51 1.63 1.67 1.75 1.80 1.88 1.92 1.88 1.96 2.07 2.10 2.08 2.10 2.02 1.90 1.89 1.84 1.87
1.54 1.63 1.64 1.54 1.34 1.20 1.19 1.13 1.00 0.88 0.77 0.76 0.82 0.81 0.76 0.78 0.83 0.82 0.77 0.70 0.73 0.80 0.92 0.96 1.10 1.25 1.44 1.62 1.77 1.78 1.78 1.83 1.82 1.77 1.87 1.98 2.08 2.20 2.21 2.20 2.09 1.93 1.88
1.41 1.46 1.41 1.39 1.28 1.18 1.10 1.05 0.93 0.78 0.71 0.75 0.78 0.80 0.72 0.67 0.71 0.72 0.75 0.64 0.60 0.63 0.73 0.86 1.06 1.17 1.25 1.30 1.39 1.47 1.51 1.55 1.61 1.60 1.58 1.66 1.76 1.92 2.07 2.16 2.10 2.08 1.97
1.08 1.17 1.22 1.12 1.07 1.01 0.95 1.03 1.03 0.91 0.88 0.90 0.96 0.88 0.74 0.69 0.68 0.66 0.71 0.65 0.61 0.63 0.68 0.81 0.96 1.02 1.06 1.10 1.13 1.23 1.32 1.33 1.32 1.37 1.35 1.37 1.46 1.60 1.74 1.83 1.90 2.01 2.05
0.90 0.93 0.99 0.94 0.96 0.90 0.88 0.98 1.02 1.02 1.09 1.15 1.12 0.95 0.81 0.73 0.66 0.63 0.63 0.64 0.65 0.67 0.72 0.87 0.95 0.96 0.91 1.00 1.04 1.09 1.13 1.10 1.05 1.09 1.10 1.15 1.19 1.28 1.40 1.55 1.76 1.95 2.06
0.68 0.65 0.63 0.64 0.70 0.70 0.67 0.73 0.81 0.90 1.04 1.11 1.00 0.86 0.74 0.62 0.57 0.59 0.57 0.61 0.67 0.68 0.73 0.79 0.89 0.92 0.90 0.93 1.00 0.99 0.94 0.93 0.93 0.88 0.79 0.81 0.88 0.90 0.98 1.03 1.32 1.58 1.81
0.44 0.42 0.38 0.37 0.42 0.40 0.42 0.46 0.56 0.72 0.92 0.99 0.86 0.70 0.62 0.59 0.54 0.52 0.49 0.48 0.51 0.57 0.61 0.66 0.81 0.92 0.83 0.94 0.94 0.86 0.79 0.76 0.81 0.78 0.70 0.69 0.72 0.64 0.61 0.65 0.87 1.17 1.38
0.33 0.33 0.32 0.29 0.31 0.30 0.32 0.40 0.47 0.60 0.70 0.72 0.67 0.55 0.49 0.46 0.44 0.42 0.42 0.44 0.46 0.49 0.54 0.58 0.74 0.84 0.92 0.86 0.71 0.75 0.75 0.75 0.78 0.80 0.82 0.75 0.70 0.77 0.69 0.63 0.70 0.79 0.91
0.28 0.28 0.29 0.29 0.32 0.37 0.39 0.48 0.53 0.52 0.55 0.62 0.63 0.53 0.46 0.43 0.41 0.38 0.38 0.46 0.47 0.46 0.51 0.57 0.60 0.68 0.81 0.75 0.60 0.65 0.64 0.75 0.82 0.85 0.94 0.95 0.88 0.86 0.94 0.89 0.89 0.87 0.80
0.17 0.17 0.18 0.18 0.20 0.23 0.27 0.30 0.32 0.34 0.35 0.40 0.46 0.42 0.35 0.37 0.40 0.38 0.41 0.45 0.46 0.50 0.52 0.56 0.59 0.65 0.69 0.65 0.58 0.62 0.68 0.82 0.84 0.79 0.91 0.95 0.89 0.93 1.00 1.12 1.18 1.10 0.95
0.08 0.07 0.08 0.09 0.08 0.08 0.13 0.17 0.15 0.13 0.14 0.17 0.23 0.25 0.24 0.27 0.34 0.42 0.47 0.45 0.43 0.48 0.50 0.49 0.49 0.53 0.55 0.60 0.52 0.64 0.74 0.80 0.81 0.82 0.87 1.02 0.95 0.92 0.90 0.99 1.13 1.12 0.99
0.06 0.05 0.05 0.06 0.06 0.06 0.07 0.11 0.11 0.08 0.08 0.09 0.11 0.13 0.17 0.23 0.33 0.39 0.36 0.36 0.38 0.42 0.43 0.46 0.45 0.46 0.53 0.64 0.65 0.72 0.74 0.78 0.84 0.93 0.98 0.96 1.04 0.88 0.84 0.86 0.87 0.96 0.95
0.05 0.04 0.05 0.06 0.06 0.05 0.05 0.07 0.08 0.08 0.09 0.08 0.08 0.09 0.11 0.14 0.19 0.26 0.29 0.30 0.33 0.35 0.34 0.35 0.35 0.39 0.50 0.58 0.60 0.63 0.68 0.76 0.77 0.82 0.83 0.79 0.88 0.74 0.66 0.62 0.68 0.75 0.80
0.04 0.05 0.06 0.06 0.05 0.05 0.05 0.05 0.07 0.10 0.11 0.08 0.07 0.07 0.08 0.10 0.13 0.19 0.23 0.26 0.30 0.32 0.31 0.29 0.31 0.34 0.39 0.46 0.49 0.50 0.49 0.52 0.56 0.54 0.63 0.65 0.63 0.59 0.52 0.57 0.62 0.63 0.66
0.04 0.06 0.09 0.08 0.07 0.05 0.07 0.07 0.08 0.09 0.11 0.09 0.08 0.08 0.09 0.09 0.10 0.13 0.19 0.27 0.28 0.25 0.26 0.28 0.31 0.35 0.37 0.37 0.38 0.41 0.42 0.41 0.46 0.45 0.48 0.48 0.48 0.49 0.51 0.54 0.58 0.64 0.68
0.04 0.06 0.08 0.10 0.08 0.07 0.06 0.07 0.07 0.08 0.09 0.08 0.07 0.08 0.08 0.09 0.08 0.08 0.11 0.18 0.20 0.19 0.21 0.25 0.30 0.35 0.38 0.34 0.30 0.31 0.37 0.43 0.49 0.55 0.50 0.47 0.48 0.50 0.57 0.60 0.59 0.63 0.67
0.04 0.04 0.05 0.07 0.09 0.08 0.07 0.07 0.08 0.08 0.08 0.09 0.08 0.08 0.08 0.09 0.08 0.07 0.08 0.10 0.11 0.12 0.11 0.13 0.17 0.17 0.16 0.17 0.17 0.19 0.25 0.32 0.39 0.54 0.61 0.64 0.69 0.72 0.71 0.69 0.61 0.56 0.57